Date String (YYYY-MM-DD hh:mm:ss) UTC,Instrument flags,absolute air pressure of the measurement (hPa),sample flow rate (lpm),inlet stack bypass flow (lpm),air temperature of the measurement (°C),ambient temperature measured by the external sensor (°C),aerosol sample conditioner tube jacket temperature (°C),OPC LED temperature (°C),internal box temperature (°C),relative humidity of the measurement (%),span deviation,mass concentration of particles derived from Lorenz-Mie calculation of OPC scattering (μg/m³),mass concentration of particles derived from Lorenz-Mie calculation of OPC scattering (μg/m³),mass concentration of particles derived from Lorenz-Mie calculation of OPC scattering (μg/m³)
DateTimeUTC,F1_M11,P_M11,Q1_M11,Q2_M11,T1_M11,T2_M11,T3_M11,T4_M11,T5_M11,U1_M11,ZSPAN_M11,X0_M11,X2_M11,X1_M11
2023-06-06 04:00:00,SystemResetWarning,0833.8,4.99,000.00,029.2,027.7,000.0,037.8,030.6,31.7,0000.0,0013.79,0005.58,0003.98
2023-06-06 04:01:00,SystemResetWarning,0833.8,5.01,000.00,029.2,027.7,000.0,037.8,030.6,31.7,0000.0,0014.20,0005.70,0004.01
2023-06-06 04:02:00,SystemResetWarning,0833.8,5.00,000.00,029.2,027.7,000.0,037.8,030.5,31.7,0000.0,0014.11,0005.73,0004.02
2023-06-06 04:03:00,SystemResetWarning,0833.8,5.00,000.00,029.2,027.7,000.0,037.8,030.6,31.8,0000.7,0014.79,0005.76,0004.03
2023-06-06 04:04:00,SystemResetWarning,0833.8,5.01,000.00,029.2,027.7,000.0,037.8,030.6,31.7,0001.4,0015.47,0005.76,0004.03
2023-06-06 04:05:00,SystemResetWarning,0833.8,5.01,000.00,029.2,027.8,000.0,037.8,030.5,31.6,0001.8,0015.86,0005.79,0004.03
2023-06-06 04:06:00,SystemResetWarning,0833.9,5.00,000.00,029.2,027.8,000.0,037.8,030.5,31.5,0000.9,0016.60,0005.81,0004.01
2023-06-06 04:07:00,SystemResetWarning,0833.8,5.01,000.00,029.2,027.8,000.0,037.8,030.6,31.4,0000.0,0017.27,0005.83,0004.01
2023-06-06 04:08:00,SystemResetWarning,0833.8,4.98,000.00,029.2,027.8,000.0,037.8,030.6,31.3,0000.0,0016.82,0005.80,0004.02
2023-06-06 04:09:00,SystemResetWarning,0833.8,5.00,000.00,029.2,027.8,000.0,037.8,030.6,31.2,0000.7,0016.28,0005.78,0004.02
2023-06-06 04:10:00,SystemResetWarning,0833.8,5.00,000.00,029.2,027.8,000.0,037.8,030.7,31.1,0000.3,0015.56,0005.74,0004.01
2023-06-06 04:11:00,SystemResetWarning,0833.8,5.01,000.00,029.3,027.8,000.0,037.8,030.7,31.0,0000.2,0015.37,0005.69,0004.00
2023-06-06 04:12:00,SystemResetWarning,0833.8,5.01,000.00,029.3,027.9,000.0,037.8,030.7,30.8,0003.5,0014.88,0005.59,0003.98
2023-06-06 04:13:00,SystemResetWarning,0833.9,5.00,000.00,029.3,027.9,000.0,037.8,030.8,30.8,0003.4,0015.75,0005.59,0003.96
2023-06-06 04:14:00,SystemResetWarning,0833.8,5.01,000.00,029.3,027.9,000.0,037.8,030.8,30.7,0002.8,0015.60,0005.58,0003.94
2023-06-06 04:15:00,SystemResetWarning,0833.8,5.00,000.00,029.3,027.9,000.0,037.8,030.8,30.6,0001.6,0014.77,0005.53,0003.92
2023-06-06 04:16:00,SystemResetWarning,0833.8,5.00,000.00,029.4,027.9,000.0,037.8,030.8,30.4,0000.0,0014.21,0005.44,0003.88
2023-06-06 04:17:00,SystemResetWarning,0833.8,4.99,000.00,029.4,027.9,000.0,037.9,030.8,30.2,0000.9,0013.21,0005.36,0003.86
2023-06-06 04:18:00,SystemResetWarning,0833.8,4.99,000.00,029.4,027.9,000.0,037.9,030.8,30.2,0000.8,0011.98,0005.28,0003.83
2023-06-06 04:19:00,SystemResetWarning,0833.8,5.00,000.00,029.4,027.9,000.0,037.9,030.9,30.2,0000.1,0011.65,0005.22,0003.82
2023-06-06 04:20:00,SystemResetWarning,0833.8,5.01,000.00,029.4,028.0,000.0,037.9,030.9,30.2,0001.5,0011.40,0005.15,0003.81
2023-06-06 04:21:00,SystemResetWarning,0833.8,5.00,000.00,029.4,028.0,000.0,037.9,030.9,30.0,0001.1,0011.08,0005.07,0003.81
2023-06-06 04:22:00,SystemResetWarning,0833.7,4.99,000.00,029.4,028.0,000.0,037.9,030.9,30.3,0001.2,0011.04,0005.10,0003.81
2023-06-06 04:23:00,SystemResetWarning,0833.7,5.00,000.00,029.4,028.0,000.0,037.9,030.9,30.3,0000.0,0010.79,0005.06,0003.81
2023-06-06 04:24:00,SystemResetWarning,0833.7,5.00,000.00,029.5,028.0,000.0,037.9,030.9,30.3,0000.0,0009.86,0004.98,0003.80
2023-06-06 04:25:00,SystemResetWarning,0833.7,5.00,000.00,029.5,028.0,000.0,037.9,030.9,30.2,0000.0,0009.20,0004.92,0003.81
2023-06-06 04:26:00,SystemResetWarning,0833.8,5.00,000.00,029.5,028.0,000.0,038.0,030.9,30.3,0000.0,0009.23,0004.91,0003.82
2023-06-06 04:27:00,SystemResetWarning,0833.8,5.00,000.00,029.5,028.0,000.0,038.0,030.9,30.2,0000.0,0009.68,0004.91,0003.85
2023-06-06 04:28:00,SystemResetWarning,0833.8,5.00,000.00,029.5,028.0,000.0,038.0,031.0,30.2,0000.0,0009.70,0004.93,0003.88
2023-06-06 04:29:00,SystemResetWarning,0833.7,5.00,000.00,029.5,028.0,000.0,038.0,030.9,30.2,0000.0,0010.06,0004.98,0003.92
2023-06-06 04:30:00,SystemResetWarning,0833.7,5.00,000.00,029.5,028.0,000.0,038.0,030.9,30.2,0000.0,0010.01,0004.98,0003.94
2023-06-06 04:31:00,SystemResetWarning,0833.8,5.00,000.00,029.5,028.0,000.0,038.0,030.9,29.9,0000.0,0010.18,0005.05,0003.96
2023-06-06 04:32:00,SystemResetWarning,0833.8,5.00,000.00,029.5,028.0,000.0,038.0,031.0,29.5,0000.0,0010.25,0005.10,0003.99
2023-06-06 04:33:00,SystemResetWarning,0833.8,4.99,000.00,029.5,028.0,000.0,038.0,031.0,29.2,0000.0,0010.10,0005.05,0004.00
2023-06-06 04:34:00,SystemResetWarning,0833.8,4.99,000.00,029.5,028.0,000.0,038.0,031.0,29.0,0000.0,0010.05,0005.05,0004.03
2023-06-06 04:35:00,SystemResetWarning,0833.8,5.00,000.00,029.5,028.0,000.0,038.0,031.0,28.8,0000.0,0010.15,0005.08,0004.06
2023-06-06 04:36:00,SystemResetWarning,0833.8,5.00,000.00,029.5,028.0,000.0,038.1,031.0,29.1,0000.5,0010.08,0005.08,0004.08
2023-06-06 04:37:00,SystemResetWarning,0833.8,5.00,000.00,029.5,028.0,000.0,038.1,031.0,29.3,0002.0,0009.88,0005.05,0004.11
2023-06-06 04:38:00,SystemResetWarning,0833.8,5.01,000.00,029.6,028.0,000.0,038.1,031.0,29.0,0001.5,0009.34,0005.07,0004.14
2023-06-06 04:39:00,SystemResetWarning,0833.8,5.01,000.00,029.6,028.0,000.0,038.1,031.0,28.9,0001.6,0009.34,0005.07,0004.15
2023-06-06 04:40:00,SystemResetWarning,0833.8,5.00,000.00,029.6,028.0,000.0,038.1,031.0,28.8,0000.2,0008.86,0005.02,0004.16
2023-06-06 04:41:00,SystemResetWarning,0833.8,4.99,000.00,029.6,028.0,000.0,038.1,031.0,28.9,0000.0,0008.69,0004.97,0004.17
2023-06-06 04:42:00,SystemResetWarning,0833.8,5.00,000.00,029.6,028.0,000.0,038.1,031.0,28.8,0000.0,0008.40,0004.89,0004.18
2023-06-06 04:43:00,SystemResetWarning,0833.8,5.01,000.00,029.6,028.0,000.0,038.1,031.0,28.3,0000.0,0008.40,0004.84,0004.18
2023-06-06 04:44:00,SystemResetWarning,0833.8,5.00,000.00,029.6,028.0,000.0,038.1,031.0,28.2,0000.0,0008.50,0004.82,0004.17
2023-06-06 04:45:00,SystemResetWarning,0833.8,5.01,000.00,029.6,028.0,000.0,038.1,031.0,27.9,0000.0,0008.45,0004.79,0004.16
2023-06-06 04:46:00,SystemResetWarning,0833.8,5.00,000.00,029.6,028.0,000.0,038.1,031.0,27.8,0000.0,0008.37,0004.76,0004.15
2023-06-06 04:47:00,SystemResetWarning,0833.8,5.00,000.00,029.6,028.0,000.0,038.1,031.0,28.2,0000.0,0009.01,0004.75,0004.14
2023-06-06 04:48:00,SystemResetWarning,0833.8,5.00,000.00,029.6,028.0,000.0,038.1,031.0,28.1,0000.0,0009.03,0004.73,0004.12
2023-06-06 04:49:00,SystemResetWarning,0833.8,5.00,000.00,029.6,028.1,000.0,038.1,031.0,27.9,0000.0,0009.10,0004.73,0004.09
2023-06-06 04:50:00,SystemResetWarning,0833.8,5.00,000.00,029.6,028.1,000.0,038.1,031.0,27.5,0000.0,0009.07,0004.71,0004.06
2023-06-06 04:51:00,SystemResetWarning,0833.8,5.00,000.00,029.6,028.0,000.0,038.1,031.0,27.4,0000.0,0009.02,0004.66,0004.02
2023-06-06 04:52:00,SystemResetWarning,0833.8,5.01,000.00,029.6,028.1,000.0,038.1,031.0,27.6,0000.0,0008.98,0004.63,0003.99
2023-06-06 04:53:00,SystemResetWarning,0833.8,5.00,000.00,029.6,028.1,000.0,038.1,031.0,27.6,0000.0,0009.00,0004.60,0003.95
2023-06-06 04:54:00,SystemResetWarning,0833.7,5.00,000.00,029.6,028.1,000.0,038.1,031.0,28.0,0000.0,0008.88,0004.56,0003.94
2023-06-06 04:55:00,SystemResetWarning,0833.8,5.00,000.00,029.6,028.1,000.0,038.2,031.0,28.0,0000.0,0008.83,0004.55,0003.94
2023-06-06 04:56:00,SystemResetWarning,0833.8,5.00,000.00,029.6,028.1,000.0,038.2,031.0,28.1,0000.0,0008.89,0004.55,0003.96
2023-06-06 04:57:00,SystemResetWarning,0833.8,4.99,000.00,029.6,028.1,000.0,038.2,031.0,28.3,0000.0,0008.99,0004.58,0003.98
2023-06-06 04:58:00,SystemResetWarning,0833.8,5.00,000.00,029.6,028.1,000.0,038.2,031.0,28.5,0000.0,0008.84,0004.60,0004.00
2023-06-06 04:59:00,SystemResetWarning,0833.8,5.00,000.00,029.6,028.1,000.0,038.2,031.1,28.5,0000.0,0008.86,0004.65,0004.03
